Location: �chenoz-la-M�line
(47.6009°N, 6.1354°E)
Time: 08:12:40
(UTC+00:00)

GEOS 3 Rocket - Visible Passes

Search period start: 09 May 2021 00:00
Search period end: 19 May 2021 00:00
Orbit: 775 x 844 km, 115.0° (Epoch: 08 May)

Date Brightness Start Highest point End Pass type
(mag) Time Alt. Az. Time Alt. Az. Time Alt. Az.
09 May 6.4 19:45:25 10° SW 19:46:57 11° WSW 19:48:30 10° W visible
13 May 6.0 19:45:40 10° SSW 19:49:19 18° WSW 19:53:00 10° WNW visible
16 May 6.0 20:12:31 10° SSW 20:15:54 17° WSW 20:19:18 10° WNW visible
17 May 5.3 19:47:09 10° S 19:51:44 28° WSW 19:56:22 10° WNW visible
